Regional Weather Roundup
Issued by NWS

Home | Current Version | Previous Version | Text Only | Print | Product List | Glossary Off
Versions: 1 2 3 4 5 6 7 8 9 10 11 12 13 14 15 16 17 18 19 20 21 22 23 24 25 26 27 28 29 30 31 32 33 34 35 36 37 38 39 40 41 42 43 44 45 46 47 48 49 50

000
ASUS43 KIND 310759
RWRIN

WEATHER ROUNDUP FOR INDIANA
NATIONAL WEATHER SERVICE INDIANAPOLIS IN
400 AM EDT FRI OCT 31 2014

NOTE: "FAIR" INDICATES FEW OR NO CLOUDS BELOW 12,000 FEET WITH NO
SIGNIFICANT WEATHER AND/OR OBSTRUCTIONS TO VISIBILITY.

* - STATION DOES NOT REPORT WEATHER SUCH AS PRECIPITATION OR FOG.

+ - STATION NOT QUALITY CONTROLLED BY THE NATIONAL WEATHER SERVICE.
    USE DATA WITH CAUTION...ESPECIALLY DEWPOINT AND RELATIVE
    HUMIDITY OBSERVATIONS.

INZ001>003-010>013-019-020-310900-
NORTHWEST INDIANA

CITY           SKY/WX    TMP DP  RH WIND       PRES   REMARKS
GARY /AIRPORT/ DRIZZLE   47  39  72 W8        30.02S
VALPARAISO     NOT AVBL

$$

LMZ046-743>745-310900-
SOUTHERN LAKE MICHIGAN

STATION/POSITION TIME  TEMP WIND        PRES
                       AIR  DIR/SP/G
                 (UTC) (F)  (DEG/KT/KT) (MB)
MICHIGAN CITY    0700   50  270/ 19/ 24   N/A

$$

INZ004-005-014>016-021>024-310900-
NORTH CENTRAL INDIANA

CITY           SKY/WX    TMP DP  RH WIND       PRES   REMARKS
GOSHEN         CLOUDY    44  37  76 SW8       29.97F
SOUTH BEND     CLOUDY    44  37  76 W7        29.98F
WARSAW +       MOCLDY    39  34  81 W5        29.99F

$$

INZ006>009-017-018-025>027-310900-
NORTHEAST INDIANA

CITY           SKY/WX    TMP DP  RH WIND       PRES   REMARKS
ANGOLA *+      CLOUDY    43  37  81 SW5       29.96F
AUBURN +       CLOUDY    43  36  75 SW5       29.98F
FORT WAYNE     CLOUDY    43  37  79 SW3       30.00F

$$

INZ028-029-035-036-043>045-051>053-310900-
WEST CENTRAL INDIANA

CITY           SKY/WX    TMP DP  RH WIND       PRES   REMARKS
GREENCASTLE +  MOCLDY    43  39  87 CALM      30.03S
LAFAYETTE      CLOUDY    42  38  85 CALM      30.02F
TERRE HAUTE    PTCLDY    43  41  93 NW3       30.04R

$$

INZ030>032-037>040-046>048-054>057-064-065-310900-
CENTRAL INDIANA

CITY           SKY/WX    TMP DP  RH WIND       PRES   REMARKS
CP ATTERBURY + CLOUDY    45  41  87 CALM      30.01F
FRANKFORT +    CLOUDY    41  41 100 SW3       30.03S
INDIANAPOLIS   CLOUDY    43  37  79 W3        30.01S
-EAGLE CREEK   MOCLDY    46  39  76 NW7       30.01S
KOKOMO *+      MOCLDY    43  36  75 W6        30.01F
MT COMFORT *+  MOCLDY    41  37  87 W3        30.01S
SHELBYVILLE    CLOUDY    47  41  80 CALM      30.00F
ZIONSVILLE +   CLOUDY    44  37  76 W5        30.02S

$$

INZ033-034-041-042-049-050-058-059-310900-
EAST CENTRAL INDIANA

CITY           SKY/WX    TMP DP  RH WIND       PRES   REMARKS
MUNCIE         MOCLDY    43  35  73 SW3       30.00F

$$

INZ060-061-067>069-081>083-085>088-310900-
SOUTHWEST INDIANA

CITY           SKY/WX    TMP DP  RH WIND       PRES   REMARKS
EVANSVILLE     CLOUDY    49  43  80 NE6       30.03S
HUNTINGBURG *+ CLOUDY    46  39  76 NE3       30.03S

$$

INZ062-063-066-070>080-084-089>092-310900-
SOUTH CENTRAL AND SOUTHEAST INDIANA

CITY           SKY/WX    TMP DP  RH WIND       PRES   REMARKS
BLOOMINGTON    CLOUDY    46  43  89 CALM      30.01F

$$




USA.gov is the U.S. government's official web portal to all federal, state and local government web resources and services.